Find SpaceMobile-008

NORAD ID: 69589 Int'l Des: 2026-139 Owner: ASTS Country: US Constellation: bluewalker operational
LEOCIRCULAR

現在のビュー

3D地球を読み込み中...

About SpaceMobile-008

SpaceMobile-008 (NORAD 69589) is a bluewalker constellation satellite launched Jun 17, 2026 by ASTS of US. It operates in LEO, CIRCULAR orbit with a mass of 5850.00 kg.

SpaceMobile-008について

説明を読み込み中...

次回通過

Passes for default location (London). Set your location on the main map for personalized predictions.

高度履歴

Loading altitude history...

軌道要素

1 69589U 26139A 26168.86759766 .00000613 00000-0 51823-4 0 9998
2 69589 52.9984 259.4732 0003688 322.0387 38.0343 15.12492987 96
Epoch: Jun 17, 2026 • Age: 11 hours

現在のステータス

高度 528.4 km
速度 7.60 km/s
衛星直下点 -7.25°S, 132.92°W
打ち上げ日 Jun 17, 2026
運用期間 1 day
タイプ other

技術仕様

分類 Payload
質量 5850.00 kg
乾燥質量 5830.00 kg
総質量 5850.00 kg
長さ 1.60 m
直径 4.30 m
スパン 15.00 m
形状 Cyl + 2 pan + plate
製造者 ASTS
バスタイプ BB Block-2
フェーズステータス In Orbit
所有者/国 ASTS/US

Most Searched